YAOGAN-36 05A

导读 | 豆包AI

YAOGAN-36 05A是中国研制发射的遥感卫星,隶属于遥感三十六号卫星组。该卫星于北京时间2023年7月26日发射,由长征二号丁运载火箭以一箭三星方式送入预定轨道,发射任务取得圆满成功。卫星主要用于自然资源观测、国土普查、防震减灾与城市规划等领域,将为中国经济社会发展提供遥感信息支撑。

基本信息
目录编号:
57452
目录名称:
YAOGAN-36 05A
国际标识:
2023-106A
轨道中心:
EARTH
卫星名称:
YAOGAN-36 05A
卫星全名:
--
卫星状态:
在轨 (已飞行952 天)
发射日期:
2023-07-26 UTC
国别 :
中国 (CN)
星等 :
--
轨道信息
数据来源 国际轨道数据
星历时间: 2026-03-04T12:41:53+0800
4小时前
查看轨道信息
半长轴: 6874.642km
偏心率: 0.0001406
轨道倾角: 35.006°
近地点辐角 234.929°
升交点赤经 357.921°
平近点角 125.129°
近地点: 495.538km
远地点: 497.472km
周期: 94.544分钟
每日圈数: 15.230975
详细信息
使用方式:
暂无
2D轨道图
3D轨道图
轨道高度分析图
轨道倾角分析图
轨道综合分析图
查看轨道综合分析图